QPF
0.00 0.00 0.00 0.00 0.00 0.00 0.00 0.00 0.00 0.00 0.00 0.00 0.00 0.00 0.00 0.00 0.00 0.00 0.00 0.00 0.00 0.00 0.00 0.00 0.00 0.00 0.00 0.00 0.00 0.00 0.00 0.00 0.00 0.00 0.00 0.00 0.00 0.00 0.00 0.00 0.00 0.00 0.00
0.01 0.00 0.00 0.00 0.00 0.00 0.00 0.00 0.00 0.00 0.00 0.00 0.00 0.00 0.00 0.00 0.00 0.00 0.00 0.00 0.00 0.00 0.00 0.00 0.00 0.00 0.00 0.00 0.00 0.00 0.00 0.00 0.00 0.00 0.00 0.00 0.00 0.00 0.00 0.00 0.00 0.00 0.00
0.00 0.00 0.00 0.00 0.00 0.00 0.00 0.00 0.00 0.00 0.00 0.00 0.00 0.00 0.00 0.00 0.00 0.00 0.00 0.00 0.00 0.00 0.00 0.00 0.00 0.00 0.00 0.00 0.00 0.00 0.00 0.00 0.00 0.00 0.01 0.01 0.02 0.00 0.00 0.00 0.00 0.00 0.00
0.00 0.00 0.00 0.00 0.00 0.00 0.00 0.00 0.00 0.00 0.00 0.00 0.00 0.00 0.00 0.00 0.00 0.00 0.00 0.00 0.00 0.00 0.00 0.00 0.00 0.00 0.00 0.00 0.00 0.00 0.00 0.00 0.00 0.02 0.04 0.09 0.07 0.00 0.00 0.00 0.00 0.00 0.00
0.00 0.00 0.00 0.00 0.00 0.00 0.00 0.00 0.00 0.00 0.00 0.00 0.00 0.00 0.00 0.00 0.00 0.00 0.00 0.00 0.00 0.00 0.00 0.00 0.00 0.00 0.00 0.00 0.00 0.00 0.00 0.00 0.00 0.00 0.06 0.07 0.06 0.02 0.00 0.00 0.00 0.00 0.00
0.00 0.00 0.00 0.00 0.00 0.00 0.00 0.00 0.00 0.00 0.00 0.00 0.00 0.00 0.00 0.00 0.00 0.00 0.00 0.00 0.00 0.00 0.00 0.00 0.00 0.00 0.00 0.00 0.00 0.00 0.00 0.00 0.00 0.00 0.04 0.12 0.05 0.01 0.00 0.00 0.00 0.00 0.00
0.00 0.00 0.00 0.00 0.00 0.00 0.00 0.00 0.00 0.00 0.00 0.00 0.00 0.00 0.00 0.00 0.00 0.00 0.00 0.00 0.00 0.00 0.00 0.00 0.00 0.00 0.00 0.00 0.00 0.00 0.00 0.00 0.00 0.00 0.03 0.14 0.06 0.01 0.00 0.00 0.00 0.00 0.00
0.00 0.00 0.00 0.00 0.00 0.00 0.00 0.00 0.00 0.00 0.00 0.00 0.00 0.00 0.00 0.00 0.00 0.00 0.00 0.00 0.00 0.00 0.00 0.00 0.00 0.00 0.00 0.00 0.00 0.00 0.00 0.00 0.00 0.00 0.01 0.08 0.05 0.02 0.00 0.00 0.00 0.00 0.00
0.00 0.00 0.00 0.00 0.00 0.00 0.00 0.00 0.00 0.00 0.00 0.00 0.00 0.00 0.00 0.00 0.00 0.00 0.00 0.00 0.00 0.00 0.00 0.00 0.00 0.00 0.00 0.00 0.00 0.00 0.00 0.00 0.00 0.00 0.00 0.05 0.02 0.02 0.00 0.00 0.00 0.00 0.00
0.00 0.00 0.00 0.00 0.00 0.00 0.00 0.00 0.00 0.00 0.00 0.00 0.00 0.00 0.00 0.00 0.00 0.00 0.00 0.00 0.00 0.00 0.00 0.00 0.00 0.00 0.00 0.00 0.00 0.00 0.00 0.00 0.00 0.00 0.00 0.01 0.02 0.06 0.02 0.00 0.00 0.00 0.00
0.00 0.00 0.00 0.00 0.00 0.00 0.00 0.00 0.00 0.00 0.00 0.00 0.00 0.00 0.00 0.00 0.00 0.00 0.00 0.00 0.01 0.00 0.00 0.00 0.00 0.00 0.00 0.00 0.00 0.00 0.00 0.00 0.00 0.00 0.00 0.00 0.00 0.03 0.03 0.00 0.00 0.00 0.00
0.00 0.00 0.00 0.00 0.00 0.00 0.00 0.00 0.00 0.01 0.00 0.00 0.00 0.00 0.00 0.00 0.00 0.00 0.00 0.00 0.01 0.01 0.00 0.00 0.00 0.00 0.01 0.00 0.00 0.00 0.00 0.00 0.00 0.00 0.00 0.00 0.00 0.02 0.02 0.00 0.00 0.00 0.00
0.00 0.00 0.00 0.00 0.00 0.00 0.00 0.00 0.00 0.03 0.06 0.08 0.09 0.05 0.04 0.03 0.03 0.00 0.00 0.01 0.00 0.00 0.03 0.08 0.02 0.01 0.03 0.02 0.00 0.00 0.00 0.00 0.00 0.00 0.00 0.00 0.00 0.01 0.01 0.01 0.00 0.00 0.00
0.00 0.00 0.00 0.00 0.00 0.00 0.00 0.00 0.00 0.00 0.00 0.05 0.07 0.11 0.13 0.14 0.05 0.04 0.02 0.10 0.09 0.08 0.12 0.17 0.06 0.05 0.04 0.01 0.02 0.00 0.00 0.00 0.01 0.01 0.00 0.00 0.00 0.00 0.00 0.00 0.00 0.00 0.00
0.00 0.00 0.00 0.00 0.00 0.00 0.00 0.00 0.00 0.00 0.00 0.00 0.01 0.07 0.09 0.11 0.06 0.07 0.08 0.08 0.16 0.14 0.14 0.18 0.17 0.23 0.25 0.18 0.14 0.04 0.03 0.06 0.13 0.15 0.06 0.01 0.00 0.00 0.03 0.02 0.00 0.00 0.00
0.00 0.00 0.00 0.00 0.00 0.00 0.00 0.00 0.00 0.00 0.00 0.00 0.00 0.00 0.00 0.00 0.00 0.00 0.02 0.03 0.04 0.03 0.02 0.03 0.06 0.16 0.22 0.37 0.39 0.33 0.32 0.44 0.40 0.37 0.28 0.14 0.09 0.01 0.06 0.05 0.03 0.01 0.00
0.00 0.00 0.00 0.00 0.00 0.00 0.00 0.00 0.00 0.00 0.00 0.00 0.00 0.00 0.00 0.00 0.00 0.00 0.00 0.00 0.00 0.00 0.00 0.00 0.02 0.06 0.09 0.12 0.20 0.30 0.34 0.31 0.32 0.31 0.29 0.28 0.22 0.12 0.04 0.05 0.05 0.03 0.00
0.00 0.00 0.00 0.00 0.00 0.00 0.00 0.00 0.00 0.00 0.00 0.00 0.00 0.00 0.00 0.00 0.00 0.00 0.00 0.00 0.00 0.00 0.00 0.00 0.00 0.00 0.00 0.01 0.02 0.07 0.08 0.13 0.14 0.14 0.17 0.21 0.24 0.25 0.21 0.12 0.08 0.12 0.11
0.00 0.00 0.00 0.00 0.00 0.00 0.00 0.00 0.00 0.00 0.00 0.00 0.00 0.00 0.00 0.00 0.00 0.00 0.00 0.00 0.00 0.00 0.00 0.00 0.00 0.00 0.00 0.00 0.00 0.00 0.00 0.01 0.01 0.01 0.03 0.06 0.14 0.27 0.23 0.21 0.19 0.17 0.12
0.00 0.00 0.00 0.00 0.00 0.00 0.00 0.00 0.00 0.00 0.00 0.00 0.00 0.00 0.00 0.00 0.00 0.00 0.00 0.00 0.00 0.00 0.00 0.00 0.00 0.00 0.00 0.00 0.00 0.00 0.00 0.00 0.00 0.00 0.00 0.01 0.06 0.13 0.13 0.09 0.10 0.15 0.13
0.00 0.00 0.00 0.00 0.00 0.00 0.00 0.00 0.00 0.00 0.00 0.00 0.00 0.00 0.00 0.00 0.00 0.00 0.00 0.00 0.00 0.00 0.00 0.00 0.00 0.00 0.00 0.00 0.00 0.00 0.00 0.00 0.00 0.00 0.00 0.01 0.03 0.02 0.02 0.03 0.03 0.02 0.01
0.00 0.00 0.00 0.00 0.00 0.00 0.00 0.00 0.00 0.00 0.00 0.00 0.00 0.00 0.00 0.00 0.00 0.00 0.00 0.00 0.00 0.00 0.00 0.00 0.00 0.00 0.00 0.00 0.00 0.00 0.00 0.00 0.00 0.00 0.00 0.00 0.01 0.00 0.00 0.00 0.00 0.00 0.00
0.00 0.00 0.00 0.00 0.00 0.00 0.00 0.00 0.00 0.00 0.00 0.00 0.00 0.00 0.00 0.00 0.00 0.00 0.00 0.00 0.00 0.00 0.00 0.00 0.00 0.00 0.00 0.00 0.00 0.00 0.00 0.00 0.00 0.00 0.00 0.00 0.00 0.00 0.00 0.00 0.01 0.00 0.00
0.00 0.00 0.00 0.00 0.00 0.00 0.00 0.00 0.00 0.00 0.00 0.00 0.00 0.00 0.00 0.00 0.00 0.00 0.00 0.00 0.00 0.00 0.00 0.00 0.00 0.00 0.00 0.00 0.00 0.00 0.00 0.00 0.00 0.00 0.00 0.00 0.00 0.01 0.01 0.00 0.00 0.00 0.01
0.00 0.00 0.00 0.00 0.00 0.00 0.00 0.00 0.00 0.00 0.00 0.00 0.00 0.00 0.00 0.00 0.00 0.00 0.00 0.00 0.00 0.00 0.00 0.00 0.00 0.00 0.00 0.00 0.00 0.00 0.00 0.00 0.00 0.00 0.00 0.00 0.00 0.00 0.00 0.01 0.00 0.00 0.00
0.00 0.00 0.00 0.00 0.00 0.00 0.00 0.00 0.00 0.00 0.00 0.00 0.00 0.00 0.00 0.00 0.00 0.00 0.00 0.00 0.00 0.00 0.00 0.00 0.00 0.00 0.00 0.00 0.00 0.00 0.00 0.00 0.00 0.00 0.00 0.00 0.00 0.00 0.00 0.00 0.00 0.01 0.01
MSLP
1011.59 1011.49 1011.38 1011.22 1011.55 1011.94 1012.14 1012.38 1012.65 1012.87 1013.05 1013.19 1013.45 1013.65 1013.90 1014.25 1014.43 1014.61 1014.74 1014.82 1014.90 1014.98 1015.22 1015.54 1015.75 1016.02 1016.21 1016.32 1016.47 1016.46 1016.39 1016.40 1016.45 1016.58 1016.69 1016.77 1016.84 1016.98 1017.08 1017.21 1017.38 1017.53 1017.71
1011.10 1011.57 1011.68 1011.78 1011.84 1012.07 1012.38 1012.70 1012.83 1012.99 1013.17 1013.39 1013.58 1013.86 1014.03 1014.25 1014.53 1014.72 1014.95 1015.17 1015.32 1015.49 1015.55 1015.68 1015.82 1015.94 1016.10 1016.34 1016.53 1016.51 1016.45 1016.48 1016.65 1016.83 1016.92 1017.07 1017.12 1017.19 1017.34 1017.45 1017.52 1017.74 1017.87
1011.26 1011.83 1012.07 1012.03 1012.13 1012.34 1012.51 1012.80 1013.16 1013.26 1013.43 1013.63 1013.84 1014.09 1014.29 1014.44 1014.67 1014.82 1015.05 1015.32 1015.53 1015.63 1015.88 1016.00 1016.07 1016.04 1016.14 1016.31 1016.46 1016.62 1016.65 1016.69 1016.88 1016.98 1017.26 1017.58 1017.68 1017.47 1017.47 1017.52 1017.73 1017.86 1017.97
1010.98 1011.58 1012.15 1012.24 1012.46 1012.63 1012.82 1013.05 1013.30 1013.52 1013.66 1013.89 1014.05 1014.22 1014.42 1014.58 1014.77 1015.04 1015.19 1015.36 1015.60 1015.77 1015.85 1015.99 1016.12 1016.26 1016.33 1016.48 1016.51 1016.53 1016.61 1016.71 1016.95 1017.19 1017.26 1017.08 1017.05 1017.71 1017.41 1017.62 1017.77 1017.92 1018.09
1011.18 1011.67 1012.26 1012.45 1012.64 1012.94 1013.02 1013.12 1013.41 1013.57 1013.75 1013.97 1014.19 1014.36 1014.58 1014.81 1014.95 1015.17 1015.40 1015.56 1015.68 1015.82 1015.95 1016.00 1016.10 1016.16 1016.33 1016.47 1016.62 1016.58 1016.51 1016.57 1016.99 1017.22 1017.35 1017.14 1017.16 1017.44 1017.27 1017.53 1017.74 1017.90 1018.07
1011.92 1012.23 1012.49 1012.62 1012.84 1012.97 1013.12 1013.22 1013.35 1013.52 1013.69 1013.76 1014.05 1014.20 1014.57 1014.81 1015.01 1015.23 1015.53 1015.65 1015.77 1015.91 1015.99 1016.09 1016.11 1016.18 1016.27 1016.37 1016.48 1016.54 1016.49 1016.42 1016.80 1016.95 1017.08 1017.20 1017.25 1016.90 1016.88 1017.35 1017.55 1017.84 1017.90
1012.33 1012.44 1012.64 1012.68 1012.81 1013.00 1013.11 1013.20 1013.37 1013.45 1013.58 1013.78 1013.87 1014.08 1014.34 1014.66 1014.85 1015.03 1015.33 1015.53 1015.63 1015.73 1015.95 1016.09 1016.10 1016.13 1016.16 1016.28 1016.35 1016.36 1016.29 1016.19 1016.32 1016.65 1016.45 1016.14 1016.50 1016.45 1016.40 1017.00 1017.34 1017.65 1017.80
1012.52 1012.63 1012.57 1012.72 1012.91 1013.05 1013.00 1013.09 1013.32 1013.55 1013.79 1014.01 1014.09 1014.21 1014.44 1014.70 1014.86 1014.90 1015.05 1015.24 1015.37 1015.54 1015.64 1015.76 1015.96 1016.04 1016.09 1016.09 1016.09 1016.10 1016.06 1015.95 1015.85 1016.09 1016.08 1015.89 1015.87 1016.16 1016.00 1016.43 1017.02 1017.40 1017.61
1013.18 1013.67 1013.66 1013.73 1013.70 1013.57 1013.17 1013.08 1013.20 1013.49 1013.62 1013.89 1014.09 1014.26 1014.52 1014.66 1014.79 1014.85 1014.84 1014.96 1015.09 1015.07 1015.29 1015.39 1015.44 1015.57 1015.67 1015.83 1015.89 1015.84 1015.70 1015.62 1015.59 1015.65 1015.75 1015.31 1015.23 1015.52 1015.46 1015.82 1016.45 1017.06 1017.40
1014.05 1014.26 1014.66 1014.72 1014.66 1014.33 1013.57 1013.37 1013.06 1013.19 1013.33 1013.63 1013.88 1014.17 1014.40 1014.62 1014.69 1014.81 1014.86 1014.86 1014.93 1015.03 1014.97 1015.00 1015.11 1015.21 1015.28 1015.38 1015.38 1015.43 1015.51 1015.46 1015.26 1015.05 1015.37 1015.24 1015.17 1015.43 1015.26 1015.52 1015.95 1016.52 1017.00
1015.09 1015.49 1015.36 1015.17 1014.97 1014.80 1014.23 1013.93 1014.04 1013.73 1013.28 1013.22 1013.31 1013.56 1013.83 1014.14 1014.50 1014.66 1014.63 1014.60 1014.61 1014.62 1014.69 1014.73 1014.74 1014.77 1014.72 1014.84 1014.99 1015.04 1015.13 1015.22 1015.28 1015.06 1014.83 1014.85 1014.78 1014.89 1015.05 1015.20 1015.61 1016.03 1016.50
1016.21 1016.35 1016.50 1016.29 1015.99 1015.58 1015.18 1015.27 1015.07 1014.51 1013.91 1014.01 1013.65 1013.26 1013.47 1013.64 1013.90 1014.03 1014.22 1014.18 1014.20 1014.19 1014.14 1014.26 1014.38 1014.44 1014.66 1014.70 1014.62 1014.76 1014.96 1014.96 1015.02 1014.69 1014.37 1014.51 1014.55 1014.51 1014.54 1015.03 1015.34 1015.58 1016.13
1017.17 1017.09 1017.22 1017.09 1016.89 1016.47 1016.31 1016.16 1015.88 1015.43 1014.95 1014.35 1014.17 1013.92 1013.77 1013.67 1013.67 1013.69 1014.10 1014.26 1014.19 1014.21 1014.15 1014.04 1014.21 1014.30 1014.27 1014.33 1014.44 1014.40 1014.52 1014.69 1014.53 1014.30 1013.85 1013.77 1014.05 1014.06 1013.95 1014.23 1014.65 1015.06 1015.55
1017.50 1017.85 1017.79 1017.66 1017.45 1017.13 1016.85 1016.78 1016.68 1016.24 1015.80 1015.44 1015.21 1014.84 1014.34 1014.01 1014.18 1013.67 1013.72 1014.19 1014.49 1013.90 1014.06 1013.75 1013.65 1013.69 1013.70 1013.63 1013.80 1013.81 1013.97 1014.02 1013.77 1013.48 1013.19 1013.16 1013.21 1013.38 1013.42 1013.66 1013.99 1014.18 1014.84
1018.30 1018.54 1018.42 1018.20 1017.92 1017.45 1017.26 1017.18 1017.09 1016.92 1016.65 1016.38 1016.01 1015.64 1015.43 1015.31 1014.95 1014.65 1014.63 1014.61 1014.65 1014.32 1014.39 1013.96 1013.68 1013.71 1013.57 1013.18 1012.90 1013.11 1013.20 1013.27 1013.24 1013.18 1013.11 1012.93 1012.86 1012.70 1012.88 1013.02 1013.27 1013.57 1013.81
1018.88 1019.09 1018.94 1018.86 1018.59 1018.00 1017.52 1017.31 1017.46 1017.38 1017.36 1017.12 1016.82 1016.46 1016.27 1015.97 1015.67 1015.29 1015.20 1014.80 1014.68 1014.69 1014.60 1014.02 1013.75 1013.77 1013.55 1013.47 1013.24 1013.17 1013.20 1012.91 1013.12 1012.98 1013.21 1012.43 1012.30 1012.23 1012.36 1012.50 1012.68 1012.88 1013.41
1019.35 1019.53 1019.40 1019.15 1018.90 1018.52 1018.13 1017.69 1017.61 1017.50 1017.38 1017.53 1017.45 1017.32 1017.08 1016.73 1016.41 1015.54 1015.27 1015.31 1015.18 1014.92 1014.28 1014.08 1013.82 1013.54 1013.49 1013.34 1013.17 1013.04 1012.95 1012.94 1012.97 1013.01 1012.45 1012.51 1011.54 1012.15 1012.11 1012.12 1011.89 1012.19 1012.61
1019.78 1019.93 1019.85 1019.50 1019.18 1018.85 1018.52 1018.16 1017.81 1017.66 1017.62 1017.62 1017.77 1017.69 1017.61 1017.28 1016.84 1016.24 1016.36 1016.41 1016.16 1015.64 1015.22 1014.99 1014.73 1014.16 1013.90 1013.69 1013.29 1012.85 1012.81 1012.69 1012.51 1012.02 1011.13 1011.99 1011.95 1013.31 1012.92 1012.62 1012.06 1011.79 1012.02
1020.19 1020.35 1020.26 1020.05 1019.71 1019.24 1018.67 1018.42 1018.18 1018.09 1018.09 1018.01 1017.81 1017.91 1017.99 1017.84 1017.56 1017.28 1017.25 1016.92 1016.58 1016.27 1016.11 1016.02 1015.69 1015.39 1014.73 1014.17 1013.63 1012.84 1012.43 1012.29 1012.23 1011.63 1010.93 1012.04 1012.89 1012.82 1012.55 1013.62 1013.68 1013.07 1012.37
1020.34 1020.44 1020.45 1020.39 1020.17 1019.82 1019.23 1018.73 1018.53 1018.43 1018.27 1018.34 1018.48 1018.33 1018.14 1018.26 1018.09 1017.80 1017.90 1017.54 1017.30 1016.85 1016.95 1016.43 1016.29 1015.96 1015.60 1015.01 1013.93 1012.79 1012.17 1011.83 1011.78 1011.67 1011.32 1011.34 1011.64 1011.39 1011.94 1012.89 1012.08 1011.40 1012.16
1020.73 1020.90 1020.81 1020.65 1020.60 1020.42 1020.02 1019.70 1019.31 1019.22 1018.88 1018.86 1018.79 1018.71 1018.69 1018.77 1018.72 1018.78 1018.39 1018.47 1017.77 1017.05 1017.61 1016.97 1016.91 1016.49 1015.83 1015.39 1014.26 1013.34 1012.06 1011.16 1011.22 1011.49 1011.53 1011.07 1011.05 1011.22 1011.65 1011.50 1011.07 1011.05 1009.95
1021.10 1021.18 1021.18 1021.17 1021.08 1020.89 1020.60 1020.34 1020.04 1019.61 1019.58 1019.53 1019.51 1019.53 1019.43 1019.46 1019.62 1019.46 1019.31 1018.99 1018.49 1018.42 1018.01 1017.85 1017.58 1017.17 1016.63 1016.26 1015.72 1014.77 1013.20 1011.77 1011.57 1011.34 1011.18 1011.04 1010.74 1010.59 1010.68 1010.66 1010.81 1011.02 1011.61
1021.43 1021.51 1021.37 1021.52 1021.50 1021.39 1021.15 1020.79 1020.28 1019.96 1019.98 1020.13 1020.38 1020.40 1020.48 1020.45 1020.57 1020.46 1020.06 1019.73 1019.25 1019.19 1018.61 1018.53 1018.14 1017.79 1017.38 1016.81 1016.52 1016.04 1014.80 1013.92 1013.10 1011.68 1011.45 1011.33 1011.08 1010.85 1010.66 1010.36 1010.10 1010.33 1010.44
1021.74 1021.61 1021.63 1021.61 1021.67 1021.75 1021.62 1021.45 1021.40 1021.41 1021.40 1021.51 1021.43 1021.28 1021.22 1021.10 1021.22 1021.21 1021.02 1020.49 1019.93 1019.60 1019.32 1019.13 1018.70 1018.33 1017.84 1017.29 1016.70 1016.13 1016.08 1015.78 1014.64 1013.18 1012.05 1011.63 1011.49 1011.12 1010.97 1010.92 1010.27 1009.66 1009.66
1021.68 1021.99 1022.00 1021.98 1022.04 1022.12 1022.01 1022.07 1022.14 1022.08 1021.91 1021.88 1021.88 1021.79 1021.77 1021.64 1021.68 1021.61 1021.46 1021.21 1020.69 1020.19 1019.84 1019.46 1019.16 1018.75 1018.21 1017.82 1017.52 1017.13 1016.60 1015.95 1015.30 1014.71 1012.71 1012.38 1011.96 1011.36 1011.29 1011.02 1010.78 1010.13 1009.65
1021.80 1022.00 1022.17 1022.32 1022.54 1022.45 1022.48 1022.47 1022.47 1022.45 1022.36 1022.54 1022.52 1022.37 1022.31 1022.20 1022.05 1021.96 1021.68 1021.46 1021.13 1020.60 1020.09 1019.64 1019.40 1018.97 1018.55 1018.24 1018.01 1017.68 1017.32 1016.80 1016.08 1015.59 1014.46 1013.60 1012.89 1011.41 1011.47 1011.08 1010.62 1010.58 1009.88
Thickness
5786 5789 5791 5794 5791 5786 5784 5780 5776 5773 5770 5767 5764 5761 5758 5753 5751 5748 5747 5745 5744 5743 5739 5736 5734 5730 5727 5725 5724 5725 5725 5724 5723 5721 5719 5717 5715 5713 5711 5709 5706 5704 5701
5791 5787 5787 5786 5786 5783 5779 5775 5773 5771 5768 5764 5761 5757 5755 5752 5748 5746 5743 5739 5738 5735 5734 5732 5731 5729 5727 5724 5722 5722 5722 5722 5720 5718 5716 5713 5712 5711 5708 5706 5704 5702 5700
5788 5782 5780 5781 5781 5778 5776 5773 5768 5766 5764 5760 5757 5753 5750 5747 5745 5743 5740 5737 5734 5732 5729 5728 5726 5726 5724 5723 5721 5719 5719 5718 5716 5713 5710 5705 5704 5706 5706 5704 5702 5700 5698
5786 5782 5778 5777 5775 5772 5769 5766 5763 5761 5759 5756 5753 5750 5747 5744 5742 5738 5737 5734 5731 5729 5727 5725 5724 5722 5722 5720 5719 5719 5717 5716 5713 5709 5707 5710 5711 5701 5706 5703 5700 5698 5696
5780 5777 5773 5772 5770 5766 5763 5761 5758 5757 5755 5752 5749 5746 5743 5740 5737 5734 5732 5730 5728 5726 5725 5724 5722 5721 5720 5719 5716 5717 5717 5716 5712 5708 5704 5708 5707 5702 5706 5702 5699 5697 5695
5771 5769 5768 5766 5763 5761 5758 5757 5755 5754 5752 5751 5747 5745 5740 5737 5734 5731 5727 5726 5724 5722 5721 5720 5720 5720 5719 5718 5716 5715 5715 5716 5712 5709 5706 5704 5703 5707 5707 5702 5700 5696 5696
5763 5762 5760 5760 5759 5756 5755 5754 5751 5751 5749 5746 5745 5742 5739 5734 5731 5729 5726 5724 5722 5721 5718 5716 5717 5717 5717 5716 5716 5715 5715 5715 5714 5711 5711 5712 5710 5709 5708 5703 5699 5695 5694
5756 5752 5755 5756 5754 5753 5752 5751 5748 5745 5742 5740 5738 5736 5733 5730 5727 5727 5726 5723 5722 5719 5718 5717 5715 5714 5715 5714 5713 5714 5714 5715 5715 5713 5712 5711 5712 5709 5709 5705 5699 5694 5693
5743 5742 5743 5744 5743 5743 5744 5744 5744 5741 5740 5737 5734 5731 5728 5725 5724 5722 5722 5720 5719 5720 5717 5717 5716 5715 5714 5712 5712 5712 5714 5714 5715 5714 5713 5713 5714 5711 5710 5707 5701 5694 5691
5734 5735 5733 5731 5729 5729 5734 5736 5739 5737 5735 5732 5730 5727 5724 5721 5720 5719 5718 5718 5716 5714 5715 5714 5713 5713 5713 5712 5712 5711 5711 5712 5714 5715 5713 5711 5710 5707 5708 5705 5701 5696 5692
5723 5720 5720 5721 5721 5719 5723 5725 5725 5726 5731 5731 5729 5727 5724 5721 5716 5714 5715 5715 5714 5713 5712 5712 5711 5711 5713 5712 5710 5708 5709 5708 5708 5709 5710 5709 5708 5705 5704 5703 5700 5696 5693
5708 5706 5703 5703 5705 5708 5711 5710 5711 5714 5719 5718 5721 5724 5721 5719 5715 5713 5712 5714 5713 5712 5712 5710 5709 5709 5707 5706 5706 5704 5703 5702 5702 5703 5707 5705 5704 5704 5704 5700 5698 5695 5690
5694 5694 5691 5691 5692 5695 5696 5697 5699 5703 5707 5710 5711 5712 5713 5714 5713 5711 5707 5705 5707 5706 5707 5705 5704 5703 5702 5702 5700 5700 5698 5695 5696 5698 5702 5704 5702 5701 5703 5702 5699 5695 5689
5685 5683 5683 5683 5683 5685 5686 5686 5685 5690 5694 5698 5698 5699 5702 5703 5702 5707 5706 5699 5697 5703 5700 5702 5702 5700 5698 5698 5696 5696 5693 5691 5694 5697 5700 5701 5701 5699 5700 5700 5698 5697 5690
5672 5670 5672 5674 5675 5677 5678 5677 5675 5676 5679 5680 5684 5686 5687 5687 5689 5689 5689 5688 5687 5691 5689 5693 5694 5692 5692 5691 5688 5689 5687 5686 5686 5688 5688 5691 5694 5697 5694 5694 5694 5693 5693
5660 5657 5657 5659 5661 5666 5669 5670 5666 5664 5663 5665 5668 5669 5669 5671 5673 5675 5674 5677 5678 5677 5679 5684 5685 5684 5684 5683 5685 5682 5680 5677 5676 5673 5673 5685 5687 5691 5691 5689 5689 5689 5686
5648 5644 5646 5648 5650 5654 5656 5659 5659 5659 5657 5653 5652 5652 5652 5654 5655 5662 5664 5663 5663 5665 5669 5671 5674 5676 5677 5677 5678 5677 5675 5674 5672 5669 5668 5678 5673 5681 5683 5683 5688 5687 5683
5635 5634 5634 5636 5639 5641 5643 5645 5647 5648 5647 5645 5641 5639 5638 5638 5640 5643 5642 5641 5644 5648 5650 5652 5654 5659 5660 5661 5666 5671 5668 5666 5666 5673 5679 5663 5660 5669 5667 5674 5679 5680 5677
5624 5622 5622 5623 5625 5630 5633 5634 5634 5634 5633 5633 5633 5630 5627 5625 5626 5626 5625 5626 5627 5629 5630 5632 5634 5636 5641 5646 5651 5659 5663 5662 5658 5665 5673 5661 5653 5657 5659 5652 5652 5656 5661
5615 5614 5614 5613 5615 5617 5620 5623 5623 5623 5622 5620 5617 5616 5617 5613 5611 5611 5608 5609 5608 5610 5609 5614 5615 5616 5619 5627 5636 5645 5653 5657 5652 5652 5655 5661 5653 5660 5656 5648 5652 5638 5649
5603 5601 5602 5603 5602 5602 5603 5605 5607 5607 5606 5605 5603 5600 5598 5594 5592 5588 5589 5587 5591 5596 5589 5592 5593 5597 5600 5606 5618 5626 5635 5646 5647 5643 5641 5649 5652 5648 5642 5645 5655 5659 5663
5592 5591 5590 5589 5588 5589 5589 5589 5589 5591 5590 5587 5583 5579 5577 5574 5568 5565 5565 5566 5568 5568 5571 5570 5571 5573 5578 5581 5586 5595 5614 5626 5626 5630 5633 5634 5639 5642 5638 5639 5639 5644 5643
5580 5580 5580 5576 5575 5575 5574 5575 5576 5575 5572 5566 5560 5556 5550 5547 5541 5539 5540 5540 5543 5543 5547 5547 5550 5552 5554 5559 5561 5566 5584 5590 5601 5612 5613 5616 5619 5624 5624 5627 5633 5635 5638
5569 5569 5567 5565 5563 5560 5559 5557 5554 5549 5545 5540 5537 5533 5530 5528 5524 5517 5517 5518 5521 5522 5523 5524 5527 5529 5534 5537 5542 5545 5549 5556 5567 5586 5596 5597 5601 5606 5609 5606 5618 5624 5631
5560 5556 5555 5552 5549 5546 5543 5539 5535 5530 5528 5523 5518 5515 5511 5507 5504 5500 5499 5497 5498 5500 5501 5503 5505 5508 5513 5517 5519 5522 5526 5534 5544 5551 5580 5580 5585 5588 5591 5596 5599 5609 5617
5548 5545 5543 5539 5534 5532 5528 5524 5519 5516 5512 5505 5501 5497 5493 5490 5487 5483 5482 5482 5481 5482 5484 5485 5485 5489 5494 5498 5501 5504 5507 5514 5522 5529 5543 5556 5565 5578 5572 5580 5588 5590 5600